INMARSAT 3-F4

导读

INMARSAT 3-F4是国际海事卫星组织(INMARSAT)第三代海事通信卫星,于1997年6月3日发射入轨。作为全球海事通信网络的重要组成部分,它继承了前代卫星的技术优势,配备多波束天线,可提供稳定的海上移动通信、遇险救援与全球数据连接服务,支撑航运、海事管理等领域的通信需求。该卫星设计寿命超过10年,服役期间为全球海事安全与远洋通信保障发挥了关键作用,推动了全球海上卫星通信网络的覆盖升级,是海事卫星系统从第二代向第三代过渡阶段的重要节点。

Basic Information
目录编号:
24819
目录名称:
INMARSAT 3-F4
国际标识:
1997-027A
轨道中心:
EARTH
卫星名称:
INMARSAT 3-F4
卫星全名:
--
卫星状态:
在轨 (已飞行10601 天)
发射日期:
1997-06-03 UTC
国别 :
(Inmarsat)
星等 :
--
Orbit Information
数据来源 国际轨道数据 AOE轨道数据
星历时间 2026-06-12T12:54:34+0800
15小时前
查看轨道信息
2026-06-12T02:00:00+0800
1天前
查看轨道信息
半长轴 42384.165km 42384.136km
偏心率 0.0010634 0.0010568
轨道倾角 11.515° 11.514°
近地点辐角 57.352° 57.089°
升交点赤经 37.772° 37.775°
平近点角 294.735° 132.180°
近地点 35960.956km 35961.207km
远地点 36051.1km 36050.791km
周期 1447.322分钟 1447.321分钟
每日圈数 0.994941 0.994942
Detailed Information
使用方式:
暂无
2D Orbit Map
3D Orbit Map
Orbit Altitude Analysis Chart
Orbit Inclination Analysis Chart
Orbit Comprehensive Analysis Chart
View Comprehensive Chart